Presure
242 220 217 241 250 241 250 241 238 251 258 276 270 276 251 233 223 226 220 190 193 197 198 194 200 183 187 186 190 180 187 180 206 212 227 225 224 219 215 205 212 207 197 197 202
253 250 244 248 256 231 245 254 249 235 239 240 235 246 260 250 234 232 221 217 206 204 197 189 202 185 190 187 186 193 185 177 203 220 212 220 220 219 216 214 207 193 196 199 189
239 245 250 231 241 236 252 231 247 247 231 233 248 265 264 242 232 228 218 223 218 215 189 194 202 179 214 193 191 191 184 186 210 220 204 217 216 210 209 203 200 195 197 189 194
238 227 238 236 248 231 235 248 247 250 254 262 253 242 258 255 230 243 220 194 204 198 199 159 203 214 201 196 187 212 184 219 217 212 212 205 212 200 200 199 200 192 197 184 189
231 230 227 236 240 239 233 236 245 240 249 250 252 252 249 245 246 228 218 220 217 227 225 219 215 216 204 199 217 209 194 219 219 208 199 206 205 201 197 193 194 192 195 185 188
229 226 223 218 218 234 249 240 238 239 242 327 364 317 303 246 237 238 238 228 230 226 224 219 220 204 213 211 218 207 225 212 215 200 198 194 198 194 194 191 190 191 190 191 188
233 226 222 217 217 220 249 249 231 233 243 339 340 334 329 237 239 230 222 227 223 214 216 212 215 212 209 209 209 213 217 210 209 197 196 188 187 194 190 189 188 187 183 186 183
227 231 224 230 226 225 248 240 230 225 266 316 316 312 306 296 230 228 222 205 176 211 215 215 195 201 209 207 209 216 211 210 202 193 194 189 182 194 191 187 186 178 187 185 181
229 221 223 223 225 222 217 236 226 227 264 300 298 296 291 191 238 217 221 131 132 186 208 209 208 211 178 208 206 208 210 209 202 193 192 190 190 194 189 187 179 178 179 176 177
227 225 216 220 220 228 214 231 223 220 278 253 281 279 275 270 126 214 160 194 161 211 151 208 208 211 141 205 165 208 209 205 196 188 196 191 182 187 193 186 185 180 179 178 176
240 227 211 222 214 221 220 230 220 211 258 239 255 272 270 264 205 132 210 212 208 158 205 153 211 211 209 139 201 204 202 203 197 189 196 187 193 192 191 185 188 185 179 175 168
238 220 222 221 216 222 213 229 219 217 245 260 225 249 248 245 224 213 157 213 214 208 205 205 209 213 208 190 143 201 200 204 196 190 191 196 186 192 182 190 188 189 182 179 177
252 219 228 215 216 221 211 228 215 210 226 249 231 228 235 233 187 201 204 204 208 204 204 206 192 137 207 205 204 203 198 204 201 191 187 193 198 186 192 180 187 187 188 185 180
221 219 219 224 223 221 215 222 215 213 217 237 239 237 240 239 229 131 126 142 203 200 195 199 207 144 131 204 201 204 201 201 196 199 195 184 193 192 185 189 188 183 186 185 187
229 218 218 205 218 220 218 206 220 212 206 216 228 223 209 215 222 196 194 191 196 193 146 132 210 208 205 203 198 199 199 200 191 195 202 191 190 188 190 186 187 188 187 181 185
231 225 218 231 222 218 215 211 225 211 206 209 224 223 216 212 213 210 200 196 193 192 191 199 208 208 209 203 181 203 193 191 196 197 176 198 192 187 185 190 186 185 186 189 190
235 231 216 217 211 221 220 223 210 221 200 205 202 223 228 216 216 210 205 199 196 194 191 192 199 205 206 202 201 195 185 186 191 188 117 152 148 147 176 174 187 192 189 187 187
263 231 220 218 212 221 219 219 215 223 207 202 207 202 218 229 220 215 210 204 197 196 194 195 195 194 197 199 195 190 190 190 192 194 192 188 192 122 115 119 189 183 186 186 188
264 243 240 233 223 205 209 223 216 206 215 204 201 206 201 202 223 219 213 209 202 201 200 196 194 195 197 195 191 191 191 189 190 192 193 193 190 188 205 202 195 193 190 179 178
280 268 248 229 216 224 209 216 217 214 209 214 208 202 205 201 197 202 217 209 212 214 209 202 198 197 197 196 196 194 192 190 193 196 199 207 206 205 204 204 202 198 195 194 194
271 279 266 254 234 212 219 221 214 212 215 215 212 207 198 200 205 199 194 195 205 214 210 209 216 219 218 212 208 208 207 209 213 214 215 209 215 209 202 200 204 203 197 197 196
266 266 273 263 231 234 215 211 216 214 215 213 214 210 209 202 200 201 207 198 197 196 197 198 201 210 210 213 215 213 135 208 207 203 205 204 210 210 203 202 205 206 205 201 198
268 267 278 265 266 233 223 216 223 210 214 214 213 208 214 207 204 200 198 202 207 212 199 198 192 194 195 195 192 195 194 199 200 206 206 205 199 204 209 210 208 207 206 204 200
260 262 270 270 265 249 231 218 223 218 213 208 217 217 207 214 213 203 205 201 198 197 196 201 202 207 207 204 201 197 196 197 197 196 195 196 195 196 197 195 194 194 194 192 190
257 253 259 265 264 269 233 234 221 219 212 221 209 212 213 215 212 211 209 207 203 202 203 202 201 199 200 201 200 199 199 196 198 198 200 199 200 200 202 200 201 210 209 208 207
254 258 259 260 260 261 275 258 243 222 218 216 212 223 209 212 212 213 211 210 210 210 209 209 208 209 208 207 206 204 203 202 203 205 210 210 208 209 209 205 207 209 210 211 210
273 268 263 259 261 266 262 270 256 240 223 215 219 218 218 216 210 212 214 209 209 207 201 199 206 203 204 204 205 205 205 202 204 205 205 206 211 211 211 211 213 212 102 212 211
Wind_Speed
70 76 76 72 66 80 76 81 86 73 71 62 67 73 77 78 77 81 76 77 68 80 80 80 71 59 54 47 47 44 38 40 47 39 27 23 20 21 22 24 23 23 21 18 16
57 59 63 60 55 71 64 58 59 69 67 64 63 61 66 70 72 75 71 77 75 78 75 66 72 59 60 49 48 44 40 42 42 35 30 25 21 19 20 19 20 23 22 20 20
58 54 50 64 56 60 54 61 55 56 59 59 55 56 58 62 61 64 68 70 70 72 66 68 70 54 62 55 51 49 43 44 41 34 30 27 22 18 16 24 23 24 25 26 27
54 59 51 52 49 58 57 51 51 49 50 51 52 50 55 55 60 64 64 61 63 66 68 47 67 62 62 55 48 49 46 40 39 34 31 28 22 24 23 20 23 26 28 27 30
54 52 54 49 48 49 53 50 46 46 45 46 48 49 52 53 56 62 61 63 63 59 58 58 58 53 57 55 44 48 47 41 39 34 32 26 26 28 25 26 27 28 29 31 33
52 53 53 54 55 46 47 45 42 40 39 26 28 38 43 51 53 55 54 55 53 52 51 52 48 53 50 48 44 46 43 40 38 36 30 28 31 33 29 30 31 31 32 33 34
50 52 53 54 53 50 40 40 39 38 34 16 26 35 40 48 53 52 49 50 49 49 47 47 44 45 45 44 44 43 42 41 40 38 32 34 36 37 33 34 34 33 34 36 37
52 50 50 50 48 44 36 36 36 35 25 16 24 32 38 43 48 49 49 46 40 47 45 44 43 45 45 47 45 46 43 43 43 39 36 37 38 41 38 38 37 37 39 41 39
52 53 49 48 46 45 42 35 35 31 21 17 23 30 37 38 46 46 47 39 39 43 45 43 44 47 44 48 47 46 45 44 45 42 40 40 43 46 44 43 43 42 43 42 42
53 53 51 48 46 40 42 35 34 33 17 24 24 30 37 42 43 47 43 46 43 46 41 44 46 48 40 51 44 45 46 47 48 47 46 46 44 47 49 48 48 48 48 47 47
56 53 54 48 47 43 41 35 37 37 24 29 29 33 37 41 44 45 47 47 47 45 47 43 48 53 52 42 46 49 50 52 52 51 49 47 50 50 52 52 53 53 53 52 52
55 54 53 49 47 44 44 37 38 37 30 28 36 35 39 43 46 46 44 48 49 48 47 48 54 53 53 52 44 54 55 57 55 54 51 52 52 53 53 57 56 55 57 57 57
56 55 53 53 50 47 47 39 42 43 34 32 37 38 40 43 44 47 47 48 48 49 50 52 51 45 56 58 59 58 58 59 57 57 54 56 57 55 57 56 58 58 59 61 61
58 55 54 54 51 48 49 44 46 44 39 35 37 38 41 45 47 47 48 47 51 52 53 52 56 48 47 60 60 61 60 60 58 62 62 55 59 59 57 59 61 62 65 65 66
59 59 58 55 55 52 51 51 48 47 46 40 39 44 48 46 51 56 57 56 55 56 54 50 60 60 61 62 60 60 64 62 61 63 63 61 61 57 62 61 66 68 69 69 70
59 59 58 58 56 55 54 54 49 50 46 45 43 46 49 52 55 57 58 59 60 59 58 56 61 60 63 63 60 64 63 64 66 65 58 67 69 59 64 67 70 71 72 73 75
61 60 60 59 59 56 55 55 55 48 55 52 55 50 52 56 58 60 62 63 62 63 62 61 60 62 64 64 65 66 66 68 69 67 56 62 59 57 68 72 77 76 76 77 77
58 63 63 62 61 59 57 56 54 49 57 58 58 59 53 55 58 61 64 65 64 65 66 64 65 65 66 67 68 70 70 71 72 73 76 73 72 63 60 62 79 80 81 81 82
56 63 63 64 64 63 62 58 55 58 57 62 64 60 61 60 57 60 64 67 67 68 69 70 67 70 72 72 72 73 75 76 76 78 78 76 77 76 80 83 84 86 86 85 83
46 59 65 66 67 68 63 63 61 63 64 64 65 65 63 64 65 64 62 64 67 70 73 73 72 73 75 77 77 77 79 81 82 83 85 83 84 80 84 87 90 90 90 91 91
43 47 62 68 70 67 65 66 66 65 67 66 65 67 67 68 66 69 69 70 69 69 71 73 72 73 76 78 81 84 84 86 88 87 87 86 88 84 87 90 93 96 95 95 95
42 48 53 65 71 73 69 67 69 68 68 70 68 69 70 72 72 71 68 74 75 75 76 76 75 73 77 78 79 81 68 86 88 88 88 90 88 87 89 93 96 99 101 101 101
37 41 41 57 64 73 73 71 73 70 70 70 73 73 72 74 75 75 75 75 75 73 79 80 81 81 82 82 85 86 88 89 90 90 90 93 89 92 93 96 98 100 102 103 104
40 40 39 45 57 71 76 73 75 75 74 72 74 74 76 74 77 78 79 80 80 81 82 82 83 83 83 85 87 90 91 92 94 94 95 95 95 96 97 98 99 101 103 104 107
43 42 42 41 50 56 76 80 76 75 76 79 75 76 77 78 79 79 82 83 85 86 87 87 88 89 88 89 90 92 93 94 96 97 98 100 100 102 103 103 104 105 108 110 112
42 43 44 44 48 54 51 68 80 80 78 80 79 82 80 80 80 81 83 84 86 87 87 88 89 91 92 93 94 95 96 98 100 102 103 105 105 108 108 109 110 112 113 115 117
41 47 43 45 45 47 53 55 70 82 83 81 84 84 85 86 83 85 86 87 88 89 89 89 92 93 93 96 97 96 100 101 103 105 106 108 109 111 112 113 113 114 55 117 119
Wind_Direction
258 264 267 262 259 263 263 263 265 259 260 255 252 246 247 253 256 251 252 261 256 264 268 269 272 267 271 267 271 265 270 270 287 285 262 249 237 234 231 231 221 221 232 226 214
252 253 257 258 255 263 260 259 258 263 263 258 257 251 242 241 244 242 248 248 254 257 261 263 265 264 269 266 266 270 265 259 276 267 260 243 234 229 231 226 225 228 221 209 212
253 255 253 260 258 260 259 263 260 259 261 258 254 248 240 237 239 239 241 243 245 247 257 260 261 260 263 264 264 270 260 265 270 254 254 238 232 226 227 223 221 221 215 212 206
251 256 256 257 255 261 261 258 258 260 259 256 251 248 241 236 235 236 239 247 243 247 251 255 256 256 260 263 259 267 255 257 254 248 244 245 227 223 222 223 222 221 218 221 216
249 250 255 254 255 256 260 261 258 258 258 254 250 244 239 232 229 231 234 236 239 242 244 247 248 250 256 259 256 259 259 247 245 241 243 236 227 226 221 223 223 223 220 221 219
245 247 251 255 259 258 263 260 258 260 258 246 212 215 215 228 226 226 228 231 234 236 237 240 243 250 250 253 250 258 243 246 242 240 239 237 230 234 221 224 226 226 222 223 222
241 244 248 253 257 260 264 260 255 257 262 227 205 198 194 224 222 222 225 225 227 233 235 240 240 242 246 248 250 248 240 240 237 238 233 233 237 235 227 226 228 230 231 227 226
240 241 245 246 249 252 262 254 253 254 263 218 199 193 193 199 218 218 220 227 236 231 232 233 239 241 239 243 246 241 239 236 234 236 232 232 237 236 228 227 228 232 232 232 230
237 239 241 244 248 250 252 250 250 251 251 212 200 193 194 226 214 218 217 247 249 234 230 232 235 235 245 239 241 239 238 234 233 233 233 231 231 234 232 227 230 231 233 235 236
236 236 241 241 246 247 249 245 244 241 243 226 204 197 199 202 245 219 236 227 237 226 246 233 234 233 257 234 250 240 240 235 234 236 231 232 235 235 232 232 229 230 232 233 235
231 234 241 237 243 243 242 241 240 235 234 225 216 204 203 203 220 242 221 222 224 242 228 248 232 231 231 257 240 238 237 235 233 239 234 236 234 233 235 239 232 232 233 235 236
230 234 233 235 236 237 239 236 234 232 234 222 220 214 210 208 214 218 236 220 222 225 228 231 233 232 232 237 256 236 235 236 236 239 239 235 239 236 240 238 239 236 238 238 238
230 232 233 235 233 232 236 234 231 230 231 223 221 220 216 213 225 224 224 225 224 226 229 232 237 253 232 233 235 236 236 238 237 242 242 240 238 242 240 245 244 244 242 242 242
232 230 231 230 230 230 231 232 229 227 227 227 221 219 217 214 215 244 247 245 226 229 231 234 235 250 255 234 237 239 239 240 239 240 243 244 243 242 246 245 247 248 247 247 246
228 230 229 237 230 228 229 232 228 226 226 225 225 223 223 216 217 224 226 229 229 232 249 253 234 234 236 237 239 242 242 243 243 243 244 248 247 245 245 247 247 247 248 251 250
228 228 228 228 231 230 229 229 230 227 224 225 226 225 223 222 220 220 225 228 232 234 236 236 235 237 236 239 246 242 244 247 246 246 250 248 251 245 251 248 248 249 250 250 251
228 225 228 229 231 231 229 228 231 225 226 226 227 226 224 224 223 224 225 229 232 235 238 238 239 238 239 240 242 243 245 247 248 250 260 256 255 254 251 254 253 249 250 251 252
223 226 227 226 231 229 230 227 228 228 228 229 229 229 228 227 226 227 228 231 234 237 240 240 240 243 242 240 242 245 247 250 251 252 251 251 253 258 266 268 252 256 254 253 253
224 225 224 225 228 234 231 228 225 228 228 230 232 230 230 230 230 230 232 233 235 238 239 241 242 243 244 245 246 247 248 251 251 253 254 255 255 252 253 252 252 253 255 258 258
229 224 224 226 230 229 235 232 225 225 228 229 231 234 232 232 233 234 234 235 237 238 239 241 241 243 244 246 248 248 249 251 253 253 255 254 253 254 255 255 256 255 255 256 257
228 230 225 222 226 233 233 229 232 232 229 230 232 234 236 237 234 235 236 237 237 239 240 242 242 244 245 247 247 249 250 252 252 253 254 253 254 252 254 255 256 257 258 258 258
235 232 229 225 228 228 233 233 233 234 233 232 233 233 236 238 239 240 237 239 241 242 242 243 244 244 245 246 248 249 262 252 253 254 254 255 255 254 253 254 255 256 257 259 260
237 238 235 230 229 228 231 233 232 237 237 236 235 237 234 238 240 242 243 244 243 243 244 246 248 248 248 249 251 251 252 252 254 255 255 256 258 257 257 256 256 258 259 260 260
238 237 237 235 230 228 230 235 234 236 238 239 240 239 242 240 239 243 242 244 246 248 249 249 249 249 249 250 251 253 254 256 257 259 260 261 261 261 261 261 261 261 261 262 263
242 243 239 236 233 231 231 232 236 237 239 239 241 242 243 243 243 244 245 247 248 249 251 252 253 254 254 255 256 257 258 259 260 261 262 263 262 263 262 262 262 262 262 262 262
244 247 245 243 236 233 233 233 235 238 239 241 242 245 246 246 246 247 248 250 250 251 252 254 254 255 256 257 258 259 260 261 262 262 263 262 263 263 263 264 264 263 263 263 263
244 248 245 245 247 242 237 234 234 237 240 242 244 246 246 246 247 248 249 251 252 253 255 257 257 259 259 261 261 262 263 264 265 265 266 267 267 268 268 268 269 268 271 268 267